Hourly Data Report for October 05, 2017

All times are specified in Local Standard Time (LST). Add 1 hour to adjust for Daylight Saving Time where and when it is observed.

PINAWA
MANITOBA

50°10'38.020" N
96°03'53.000" W
268.00 m
503B1ER
71448
WEA

Download Data

Hourly Data (October 2017)
Hourly Data Report for October 5, 2017
Temp Definition
°C
Dew Point Temp Definition
°C
Rel Hum Definition
%
Wind Dir Definition
10's deg

Wind Spd Definition
km/h
Visibility Definition
km
Stn Press Definition
kPa
Hmdx Definition


Wind Chill Definition


Weather Definition


TIME
00:00 5.5 2.0 78 26 5   98.61     LegendNANA
01:00 4.7 1.6 80 26 2   98.62     LegendNANA
02:00 4.6 1.9 83 19 2   98.66     LegendNANA
03:00 4.6 2.0 84 25 2   98.66     LegendNANA
04:00 3.6 1.6 87 26 2   98.68     LegendNANA
05:00 3.8 2.0 87 29 6   98.68     LegendNANA
06:00 3.5 1.8 88 28 6   98.71     LegendNANA
07:00 3.4 1.6 89 29 4   98.74     LegendNANA
08:00 5.7 2.8 81 30 9   98.77     LegendNANA
09:00 8.2 3.3 71 31 15   98.78     LegendNANA
10:00 9.2 0.3 54 32 15   98.78     LegendNANA
11:00 10.1 0.1 50 31 13   98.77     LegendNANA
12:00 10.0 0.4 51 32 14   98.76     LegendNANA
13:00 11.0 -2.0 40 29 13   98.73     LegendNANA
14:00 10.8 -1.9 41 31 15   98.71     LegendNANA
15:00 10.7 -1.7 42 30 17   98.69     LegendNANA
16:00 10.7 -1.2 43 30 15   98.65     LegendNANA
17:00 10.2 -1.1 45 30 8   98.62     LegendNANA
18:00 6.6 -0.2 62   0   98.60     LegendNANA
19:00 3.1 -0.5 77   0   98.59     LegendNANA
20:00 1.6 -0.8 84 18 1   98.59     LegendNANA
21:00 1.0 -0.8 87 18 3   98.57     LegendNANA
22:00 2.4 1.5 94 19 4   98.55     LegendNANA
23:00 3.1 0.5 83 18 4   98.52     LegendNANA

Notes on Data Quality.

Legend

  • E = Estimated
  • M = Missing
  • NA = Not Available
  • ‡ = Partner data that is not subject to review by the National Climate Archives
Date modified: